N2PUI Weather Reports


time (UTC)temp
C
wind
direction
speed
KPH
gust
KPH
rain 1hr
cm
rain 24hr
cm
rain mn
cm
humidity
%
barometer
mb
20260510131122 8 328 1.6 3.2 0.00 0.20 0.20 95 1013.9
20260510130618 8 216 3.2 4.8 0.00 0.20 0.20 95 1013.7
20260510130116 8 5 4.8 8.0 0.00 0.20 0.20 95 1013.7
20260510125612 8 133 1.6 3.2 0.00 0.20 0.20 95 1013.8
20260510125108 8 185 1.6 1.6 0.00 0.20 0.20 95 1013.9
20260510124605 8 323 4.8 8.0 0.18 0.20 0.20 95 1013.8
20260510124102 10 275 8.0 12.9 0.18 0.20 0.20 95 1013.5
20260510123556 10 214 1.6 1.6 0.00 0.18 0.18 95 1013.4
20260510123053 10 177 1.6 1.6 0.00 0.18 0.18 95 1013.0
20260510122549 10 180 0.0 1.6 0.00 0.18 0.18 95 1013.0
20260510122046 10 176 0.0 0.0 0.00 0.18 0.18 95 1012.7
20260510121543 10 174 0.0 0.0 0.00 0.18 0.18 95 1012.8
20260510121040 10 145 0.0 1.6 0.00 0.18 0.18 95 1012.8
20260510120538 10 172 0.0 1.6 0.00 0.18 0.18 95 1012.8
20260510120033 10 176 0.0 0.0 0.00 0.18 0.18 95 1012.8
20260510115530 10 175 0.0 0.0 0.00 0.18 0.18 95 1012.5
20260510115027 9 214 0.0 0.0 0.00 0.18 0.18 95 1012.5
20260510114522 9 138 0.0 0.0 0.00 0.18 0.18 95 1012.5
20260510114019 8 124 0.0 0.0 0.00 0.18 0.18 95 1012.1
20260510113514 8 178 0.0 0.0 0.00 0.18 0.18 95 1012.2
20260510113012 8 179 0.0 0.0 0.00 0.18 0.18 95 1012.2
20260510112509 8 179 0.0 0.0 0.00 0.18 0.18 95 1012.2
20260510112005 8 179 0.0 0.0 0.00 0.18 0.18 95 1012.0
20260510111501 8 177 0.0 0.0 0.00 0.18 0.18 95 1011.9
20260510110957 8 177 0.0 0.0 0.00 0.18 0.18 95 1011.8
20260510110454 8 178 1.6 1.6 0.00 0.18 0.18 95 1011.8
20260510105950 8 173 0.0 0.0 0.00 0.18 0.18 95 1011.8
20260510105445 8 174 0.0 0.0 0.00 0.18 0.18 95 1011.6
20260510104940 8 174 0.0 0.0 0.00 0.18 0.18 95 1011.5
20260510104437 8 173 0.0 0.0 0.00 0.18 0.18 95 1011.5
20260510103934 8 165 0.0 0.0 0.00 0.18 0.18 95 1011.2
20260510103432 8 166 1.6 1.6 0.00 0.18 0.18 95 1011.1
20260510102926 8 154 0.0 1.6 0.00 0.18 0.18 95 1011.0
20260510102422 8 153 0.0 0.0 0.00 0.18 0.18 95 1011.0
20260510101920 8 133 3.2 3.2 0.00 0.18 0.18 95 1011.2
20260510101417 8 154 1.6 1.6 0.00 0.18 0.18 95 1011.0
20260510100915 8 133 0.0 0.0 0.00 0.18 0.18 95 1010.7
20260510100412 8 127 3.2 3.2 0.00 0.18 0.18 95 1010.7
20260510095907 8 110 0.0 0.0 0.00 0.18 0.18 95 1010.8
20260510095402 8 135 0.0 0.0 0.00 0.18 0.18 95 1010.8
20260510094856 8 139 1.6 1.6 0.00 0.18 0.18 95 1010.8
20260510094352 8 141 0.0 0.0 0.00 0.18 0.18 95 1010.8
20260510093848 8 140 0.0 0.0 0.00 0.18 0.18 95 1010.5
20260510093344 7 148 0.0 0.0 0.00 0.18 0.18 95 1010.6
20260510092840 7 148 0.0 0.0 0.00 0.18 0.18 95 1011.0
20260510092337 7 148 0.0 0.0 0.00 0.18 0.18 95 1010.7
20260510091832 7 169 0.0 0.0 0.00 0.18 0.18 95 1010.5
20260510091330 7 170 0.0 0.0 0.00 0.18 0.18 95 1010.5
20260510090826 7 166 0.0 0.0 0.00 0.18 0.18 95 1010.6
20260510090323 7 165 0.0 0.0 0.00 0.18 0.18 95 1010.4
20260510085818 7 150 0.0 0.0 0.00 0.18 0.18 95 1010.3
20260510085313 7 150 0.0 0.0 0.00 0.18 0.18 95 1010.3
20260510084809 7 150 0.0 0.0 0.00 0.18 0.18 95 1010.4
20260510084306 7 149 0.0 0.0 0.00 0.18 0.18 95 1010.2
20260510083803 7 150 0.0 0.0 0.00 0.18 0.18 95 1010.2
20260510083300 7 150 0.0 0.0 0.00 0.18 0.18 95 1010.4
20260510082755 7 150 0.0 0.0 0.00 0.18 0.18 95 1010.2
20260510082252 7 149 0.0 0.0 0.00 0.18 0.18 95 1010.4
20260510081750 7 149 0.0 1.6 0.00 0.18 0.18 94 1010.5
20260510081247 7 150 0.0 0.0 0.00 0.18 0.18 94 1010.0
20260510080743 7 150 0.0 1.6 0.00 0.18 0.18 94 1010.0
20260510080238 7 148 0.0 0.0 0.00 0.18 0.18 94 1010.1
20260510075735 7 151 0.0 0.0 0.00 0.18 0.18 94 1009.8
20260510075233 8 150 0.0 0.0 0.00 0.18 0.18 94 1010.0
20260510074730 7 134 1.6 1.6 0.00 0.18 0.18 94 1010.0
20260510074226 7 168 0.0 0.0 0.00 0.18 0.18 94 1010.0
20260510073722 8 133 0.0 0.0 0.00 0.18 0.18 94 1010.1
20260510073218 7 156 0.0 0.0 0.00 0.18 0.18 94 1009.6
20260510072714 7 156 0.0 0.0 0.00 0.18 0.18 94 1009.8
20260510072211 8 157 0.0 0.0 0.00 0.18 0.18 94 1009.8
20260510071708 8 145 0.0 0.0 0.00 0.18 0.18 94 1009.7
20260510071204 8 133 1.6 1.6 0.00 0.18 0.18 94 1009.6
20260510070702 8 160 0.0 0.0 0.00 0.18 0.18 94 1009.7
20260510070200 9 143 1.6 1.6 0.00 0.18 0.18 94 1009.4
20260510065654 9 139 1.6 1.6 0.00 0.18 0.18 94 1009.7
20260510065151 9 130 1.6 3.2 0.00 0.18 0.18 94 1009.4
20260510064648 9 131 0.0 0.0 0.00 0.18 0.18 94 1009.3
20260510064145 9 134 3.2 3.2 0.00 0.18 0.18 94 1009.4
20260510063642 9 138 1.6 1.6 0.00 0.18 0.18 93 1009.5
20260510063138 9 130 1.6 3.2 0.00 0.18 0.18 93 1009.4
20260510062634 9 128 0.0 1.6 0.00 0.18 0.18 93 1009.7
20260510062131 9 127 1.6 3.2 0.00 0.18 0.18 93 1009.7
20260510061626 9 161 0.0 0.0 0.00 0.18 0.18 93 1009.8
20260510061124 10 179 1.6 1.6 0.00 0.18 0.18 93 1009.8
20260510060620 10 130 1.6 1.6 0.00 0.18 0.18 93 1009.8
20260510060116 10 97 0.0 0.0 0.00 0.18 0.18 93 1009.5
20260510055612 10 90 0.0 1.6 0.00 0.18 0.18 93 1010.0
20260510055110 10 101 0.0 1.6 0.00 0.18 0.18 93 1010.0
20260510054606 10 141 1.6 3.2 0.00 0.18 0.18 93 1010.1
20260510054101 10 141 1.6 1.6 0.00 0.18 0.18 93 1010.1
20260510053601 10 132 4.8 4.8 0.00 0.18 0.18 93 1010.2
20260510053058 10 121 8.0 9.7 0.00 0.18 0.18 93 1009.7
20260510052554 10 141 4.8 4.8 0.00 0.18 0.18 93 1010.0
20260510052050 10 101 0.0 1.6 0.00 0.18 0.18 93 1010.0
20260510051546 10 77 0.0 1.6 0.00 0.18 0.18 93 1010.3
20260510051043 10 121 6.4 9.7 0.00 0.18 0.18 93 1010.1
20260510050540 10 109 6.4 8.0 0.00 0.18 0.18 93 1010.5
20260510050037 10 100 0.0 1.6 0.00 0.18 0.18 92 1010.6
20260510045534 10 128 1.6 1.6 0.00 0.18 0.18 92 1011.2
20260510045030 10 176 3.2 3.2 0.13 0.18 0.18 92 1010.7
20260510044527 10 15 4.8 4.8 0.30 0.18 0.18 92 1010.7
20260510044025 10 130 3.2 3.2 0.30 0.15 0.15 91 1010.5
20260510043520 10 151 0.0 1.6 0.30 0.13 0.13 91 1010.9
20260510043015 10 178 1.6 1.6 0.36 0.10 0.10 91 1011.1
20260510042510 10 157 0.0 0.0 0.30 0.08 0.08 91 1011.0
20260510042005 10 206 3.2 3.2 0.13 0.05 0.05 90 1011.0
20260510041503 10 282 3.2 4.8 0.00 0.03 0.03 91 1011.2
20260510041000 11 278 4.8 4.8 0.18 0.03 0.03 91 1011.0
20260510040456 11 281 3.2 3.2 0.18 0.03 0.03 91 1011.1
20260510035952 11 254 3.2 4.8 0.00 0.74 0.74 91 1011.0
20260510035449 11 281 4.8 4.8 0.00 0.74 0.74 91 1010.6
20260510034948 11 211 1.6 3.2 0.00 0.74 0.74 91 1010.7
20260510034447 11 200 3.2 3.2 0.00 0.74 0.74 91 1010.9
20260510033943 10 268 4.8 4.8 0.00 0.74 0.74 91 1010.7
20260510033439 10 182 1.6 1.6 0.00 0.74 0.74 91 1010.1
20260510032937 10 142 1.6 1.6 0.00 0.74 0.74 91 1009.6
20260510032433 10 135 4.8 4.8 0.00 0.74 0.74 91 1009.1
20260510031928 10 120 4.8 4.8 0.00 0.74 0.74 91 1009.4
20260510031424 10 130 4.8 8.0 0.00 0.74 0.74 91 1009.5
20260510030919 10 130 4.8 4.8 0.00 0.74 0.74 91 1009.6
20260510030415 10 125 3.2 3.2 0.00 0.74 0.74 91 1009.7
20260510025913 10 124 4.8 4.8 0.00 0.74 0.74 91 1009.6
20260510025410 10 126 3.2 3.2 0.00 0.74 0.74 91 1009.6
20260510024908 11 142 3.2 4.8 0.00 0.74 0.74 91 1009.5
20260510024404 10 128 3.2 3.2 0.00 0.74 0.74 91 1009.4
20260510023900 10 133 0.0 0.0 0.00 0.74 0.74 91 1009.5
20260510023356 10 137 1.6 1.6 0.00 0.74 0.74 91 1009.4
20260510022848 11 140 0.0 0.0 0.00 0.74 0.74 91 1009.2
20260510022347 10 121 4.8 4.8 0.00 0.74 0.74 91 1009.2
20260510021846 11 158 3.2 3.2 0.00 0.74 0.74 91 1008.9
20260510021345 11 117 4.8 4.8 0.00 0.74 0.74 91 1008.9
20260510020841 11 113 6.4 9.7 0.00 0.74 0.74 91 1008.9
20260510020341 11 119 3.2 4.8 0.00 0.74 0.74 91 1008.9
20260510015837 11 152 4.8 4.8 0.00 0.74 0.74 91 1009.0
20260510015333 11 124 4.8 4.8 0.00 0.74 0.74 90 1009.1
20260510014828 11 133 3.2 3.2 0.00 0.74 0.74 91 1008.9
20260510014326 11 140 1.6 1.6 0.00 0.74 0.74 90 1008.8
20260510013821 11 113 9.7 9.7 0.00 0.74 0.74 91 1008.6
20260510013317 11 137 4.8 4.8 0.00 0.74 0.74 91 1008.7
20260510012812 11 114 4.8 8.0 0.00 0.74 0.74 91 1008.7
20260510012312 11 132 4.8 8.0 0.00 0.74 0.74 91 1008.9
20260510011807 11 128 3.2 3.2 0.00 0.74 0.74 91 1008.9
20260510011303 11 130 3.2 3.2 0.00 0.74 0.74 91 1008.7
20260510010800 11 135 3.2 3.2 0.00 0.74 0.74 90 1008.4
20260510010256 11 139 4.8 8.0 0.00 0.74 0.74 90 1008.3
20260510005753 11 117 6.4 8.0 0.00 0.74 0.74 90 1008.4
20260510005249 11 111 8.0 9.7 0.00 0.74 0.74 90 1008.2
20260510004748 11 112 8.0 9.7 0.00 0.74 0.74 90 1008.5
20260510004245 11 128 4.8 4.8 0.00 0.74 0.74 90 1008.2
20260510003742 11 133 1.6 3.2 0.00 0.74 0.74 90 1008.1
20260510003239 11 128 4.8 8.0 0.00 0.74 0.74 89 1008.1
20260510002737 11 118 6.4 8.0 0.00 0.74 0.74 89 1008.0
20260510002235 11 121 4.8 4.8 0.00 0.74 0.74 89 1008.3
20260510001731 11 117 4.8 4.8 0.00 0.74 0.74 89 1008.4
20260510001230 11 125 3.2 4.8 0.00 0.74 0.74 88 1008.1
20260510000726 12 128 4.8 4.8 0.00 0.74 0.74 88 1007.9
20260510000226 12 130 4.8 4.8 0.00 0.74 0.74 88 1007.9
20260509235720 12 134 1.6 3.2 0.00 0.74 0.74 87 1007.9
20260509235216 12 140 1.6 1.6 0.00 0.74 0.74 87 1007.9
20260509234712 12 140 4.8 4.8 0.00 0.74 0.74 87 1007.8
20260509234209 12 143 1.6 3.2 0.00 0.74 0.74 86 1007.8
20260509233708 12 145 1.6 3.2 0.00 0.74 0.74 86 1007.7
20260509233205 12 160 0.0 0.0 0.00 0.74 0.74 85 1007.7
20260509232701 12 126 1.6 3.2 0.00 0.74 0.74 85 1007.7
20260509232158 12 158 0.0 1.6 0.00 0.74 0.74 85 1007.8
20260509231655 13 151 6.4 9.7 0.00 0.74 0.74 85 1007.4
20260509231152 12 177 3.2 3.2 0.00 0.74 0.74 85 1007.6
20260509230649 12 135 3.2 3.2 0.00 0.74 0.74 85 1007.4
20260509230146 13 144 8.0 11.3 0.00 0.74 0.74 85 1007.8
20260509225641 13 157 3.2 3.2 0.00 0.74 0.74 84 1008.0
20260509225137 13 181 4.8 4.8 0.00 0.74 0.74 85 1008.0
20260509224633 12 166 8.0 9.7 0.00 0.74 0.74 85 1008.1
20260509224130 12 171 8.0 9.7 0.00 0.74 0.74 84 1007.8
20260509223627 13 147 4.8 4.8 0.00 0.74 0.74 84 1008.0
20260509223124 13 194 3.2 4.8 0.00 0.74 0.74 84 1007.9
20260509222621 13 182 1.6 1.6 0.00 0.74 0.74 84 1007.7
20260509222116 13 160 4.8 8.0 0.00 0.74 0.74 84 1007.8
20260509221612 12 176 4.8 4.8 0.00 0.74 0.74 85 1007.7
20260509221108 12 180 6.4 9.7 0.00 0.74 0.74 85 1007.8
20260509220604 13 140 3.2 3.2 0.00 0.74 0.74 85 1007.7
20260509215556 13 184 1.6 3.2 0.00 0.74 0.74 85 1007.8
20260509215054 12 140 3.2 4.8 0.00 0.74 0.74 85 1007.7
20260509214551 12 205 11.3 14.5 0.00 0.74 0.74 85 1007.9
20260509214048 13 178 3.2 3.2 0.00 0.74 0.74 85 1008.0
20260509213544 13 179 1.6 3.2 0.00 0.74 0.74 86 1008.0
20260509213041 12 137 1.6 3.2 0.00 0.74 0.74 86 1008.1
20260509212538 12 178 8.0 9.7 0.00 0.74 0.74 86 1008.0
20260509212035 12 173 3.2 3.2 0.00 0.74 0.74 86 1008.1
20260509211530 12 127 4.8 4.8 0.00 0.74 0.74 86 1008.2
20260509211027 12 120 4.8 8.0 0.00 0.74 0.74 86 1008.3
20260509210524 12 172 1.6 1.6 0.00 0.74 0.74 86 1008.3
20260509210020 12 197 11.3 14.5 0.00 0.74 0.74 86 1008.1
20260509205514 12 239 8.0 11.3 0.00 0.74 0.74 87 1008.3
20260509205010 12 191 4.8 8.0 0.00 0.74 0.74 87 1008.4
20260509204507 12 228 6.4 8.0 0.00 0.74 0.74 87 1008.5
20260509204003 12 169 8.0 9.7 0.00 0.74 0.74 87 1008.6
20260509203459 12 145 6.4 8.0 0.00 0.74 0.74 87 1008.5
20260509202957 12 168 3.2 3.2 0.00 0.74 0.74 87 1008.5
20260509202452 12 226 9.7 12.9 0.00 0.74 0.74 87 1008.6
20260509201948 12 234 8.0 9.7 0.00 0.74 0.74 88 1008.5
20260509201443 12 183 9.7 16.1 0.00 0.74 0.74 88 1008.6
20260509200940 12 162 6.4 8.0 0.00 0.74 0.74 88 1008.8
20260509200440 11 227 4.8 4.8 0.00 0.74 0.74 88 1008.8
20260509195937 11 200 4.8 4.8 0.00 0.74 0.74 89 1008.8
20260509195433 11 222 8.0 11.3 0.00 0.74 0.74 89 1009.2
20260509194932 11 147 4.8 8.0 0.00 0.74 0.74 89 1008.9
20260509194428 11 182 1.6 1.6 0.00 0.74 0.74 89 1008.8
20260509193926 11 187 0.0 1.6 0.00 0.74 0.74 89 1009.0
20260509193425 11 170 1.6 3.2 0.00 0.74 0.74 90 1009.0
20260509192921 11 181 1.6 1.6 0.00 0.74 0.74 90 1008.8
20260509192418 11 182 4.8 4.8 0.00 0.74 0.74 91 1009.1
20260509191913 11 181 3.2 4.8 0.00 0.74 0.74 91 1009.4
20260509191409 11 144 1.6 1.6 0.00 0.74 0.74 92 1009.1
20260509190905 11 175 6.4 8.0 0.00 0.74 0.74 92 1009.4
20260509190402 11 171 0.0 1.6 0.00 0.74 0.74 93 1009.4
20260509185900 10 195 4.8 4.8 0.00 0.74 0.74 93 1009.3
20260509185356 10 168 6.4 8.0 0.00 0.74 0.74 93 1009.5
20260509184853 10 198 3.2 3.2 0.00 0.74 0.74 94 1009.5
20260509184350 10 174 0.0 0.0 0.00 0.74 0.74 94 1009.4
20260509183847 10 181 4.8 4.8 0.00 0.74 0.74 94 1009.3
20260509183342 11 193 6.4 8.0 0.00 0.74 0.74 94 1009.3
20260509182838 10 189 1.6 3.2 0.00 0.74 0.74 94 1009.5
20260509182336 10 192 4.8 4.8 0.00 0.74 0.74 95 1009.5
20260509181833 10 178 4.8 4.8 0.00 0.74 0.74 95 1009.2
20260509181330 10 154 1.6 3.2 0.00 0.74 0.74 95 1009.4
20260509180827 10 163 3.2 3.2 0.00 0.74 0.74 95 1009.4
20260509180323 10 172 1.6 1.6 0.00 0.74 0.74 95 1009.3
20260509175820 10 165 0.0 0.0 0.00 0.74 0.74 95 1009.1
20260509175316 10 190 1.6 3.2 0.00 0.74 0.74 95 1009.5
20260509174812 10 154 3.2 3.2 0.00 0.74 0.74 95 1009.1
20260509174307 10 189 6.4 8.0 0.00 0.74 0.74 95 1009.3
20260509173804 10 167 0.0 0.0 0.00 0.74 0.74 95 1009.3
20260509173254 10 162 0.0 0.0 0.00 0.74 0.74 95 1009.5
20260509172750 10 173 1.6 1.6 0.00 0.74 0.74 95 1009.5
20260509172247 10 149 4.8 4.8 0.00 0.74 0.74 95 1009.3
20260509171743 10 181 8.0 9.7 0.00 0.74 0.74 95 1009.1
20260509171239 10 165 0.0 1.6 0.00 0.74 0.74 95 1009.3
20260509170736 10 157 6.4 9.7 0.00 0.74 0.74 95 1009.3
20260509170232 10 125 4.8 4.8 0.00 0.74 0.74 95 1009.1
20260509165730 10 196 1.6 3.2 0.00 0.74 0.74 95 1009.2
20260509165225 10 162 3.2 3.2 0.00 0.74 0.74 95 1009.3
20260509164722 10 137 4.8 4.8 0.00 0.74 0.74 95 1009.4
20260509164218 10 205 3.2 3.2 0.00 0.74 0.74 95 1009.5
20260509163715 10 164 0.0 0.0 0.00 0.74 0.74 95 1009.6
20260509163212 10 170 1.6 1.6 0.00 0.74 0.74 95 1009.5
20260509162709 10 118 8.0 9.7 0.00 0.74 0.74 95 1009.4
20260509162205 10 172 4.8 4.8 0.00 0.74 0.74 95 1009.5
20260509161700 10 134 1.6 3.2 0.13 0.74 0.74 95 1009.6
20260509161156 10 168 4.8 4.8 0.13 0.74 0.74 95 1010.0
20260509160652 10 159 3.2 3.2 0.00 0.71 0.71 95 1009.8
20260509160148 10 148 1.6 1.6 0.00 0.71 0.71 95 1009.7
20260509155644 10 181 4.8 9.7 0.18 0.71 0.71 95 1009.8
20260509155140 10 126 4.8 4.8 0.18 0.71 0.71 95 1009.7
20260509154636 10 171 4.8 8.0 0.00 0.69 0.69 95 1010.0
20260509154133 10 126 6.4 8.0 0.00 0.69 0.69 95 1010.0
20260509153630 10 159 6.4 8.0 0.00 0.69 0.69 95 1010.0
20260509153127 10 155 4.8 4.8 0.00 0.69 0.69 95 1010.0
20260509152623 10 138 11.3 12.9 0.00 0.69 0.69 95 1009.7
20260509152121 10 111 8.0 9.7 0.00 0.69 0.69 95 1009.7
20260509151617 10 155 8.0 9.7 0.00 0.69 0.69 95 1010.1
20260509151114 10 152 8.0 9.7 0.13 0.69 0.69 95 1010.1
20260509150612 10 171 8.0 11.3 0.13 0.69 0.69 95 1010.2
20260509150110 10 135 4.8 4.8 0.00 0.66 0.66 95 1010.5
20260509145605 10 141 8.0 9.7 0.00 0.66 0.66 95 1010.4
20260509145101 9 148 6.4 8.0 0.18 0.66 0.66 95 1010.4
20260509144558 9 94 8.0 9.7 0.18 0.66 0.66 95 1010.4
20260509144055 9 141 6.4 9.7 0.00 0.64 0.64 95 1010.4
20260509143552 9 114 6.4 8.0 0.00 0.64 0.64 95 1010.4
20260509143050 9 167 3.2 3.2 0.13 0.64 0.64 95 1010.5
20260509142545 9 141 4.8 4.8 0.13 0.64 0.64 95 1010.6
20260509142041 9 168 1.6 3.2 0.00 0.61 0.61 95 1010.7
20260509141538 9 134 3.2 4.8 0.18 0.61 0.61 95 1010.6
20260509141035 9 142 4.8 8.0 0.18 0.61 0.61 95 1010.6
20260509140531 9 121 4.8 4.8 0.00 0.58 0.58 95 1010.8
20260509140029 9 140 4.8 8.0 0.00 0.58 0.58 95 1010.7
20260509135526 9 111 4.8 4.8 0.13 0.58 0.58 95 1010.7
20260509135023 9 158 4.8 8.0 0.13 0.58 0.58 95 1010.7
20260509134521 9 123 9.7 11.3 0.18 0.56 0.56 95 1010.6
20260509134018 8 182 6.4 8.0 0.18 0.56 0.56 95 1010.5
20260509133514 8 147 3.2 3.2 0.00 0.53 0.53 95 1010.7
20260509133013 8 140 3.2 3.2 0.13 0.53 0.53 95 1010.7
20260509132511 8 138 3.2 3.2 0.13 0.53 0.53 95 1010.7
20260509132008 8 119 4.8 4.8 0.18 0.51 0.51 95 1010.8
20260509131505 8 165 0.0 0.0 0.18 0.51 0.51 95 1010.8